Regional Weather Roundup
Issued by NWS Wilmington, NC

Home | Current Version | Previous Version | Text Only | Print | Product List | Glossary On
Versions: 1 2 3 4 5 6 7 8 9 10 11 12 13 14 15 16 17 18 19 20 21 22 23 24 25 26 27 28 29 30 31 32 33 34 35 36 37 38 39 40 41 42 43 44 45 46 47 48 49 50
000
ASUS42 KILM 011710
RWRILM
RWRILM
REGIONAL HOURLY WEATHER ROUNDUP
NATIONAL WEATHER SERVICE WILMINGTON NC
1200 PM EST SUN MAR 01 2015

NOTE: "FAIR" INDICATES FEW OR NO CLOUDS BELOW 12,000 FEET WITH NO
SIGNIFICANT WEATHER AND/OR OBSTRUCTIONS TO VISIBILITY.

...............WFO WILMINGTON COUNTY WARNING AREA...............

......COASTAL NC AND SC COUNTIES......

CITY           SKY/WX    TMP DP  RH WIND       PRES   REMARKS
WILMINGTON     CLOUDY    56  47  71 E3        30.47F
SOUTHPORT      CLOUDY    57  47  70 NE6       30.46F
N MYRTLE BEACH LGT RAIN  48  41  76 NW5       30.48R
MYRTLE BEACH   LGT RAIN  46  39  76 NW8       30.51R FOG

......INLAND NC AND SC COUNTIES.......

CITY           SKY/WX    TMP DP  RH WIND       PRES   REMARKS
LUMBERTON      CLOUDY    36  33  89 N5        30.51F FOG     WCI  32
ELIZABETHTOWN  LGT RAIN  38  36  90 CALM      30.50S
WHITEVILLE     CLOUDY    42  35  75 NW3       30.50S
FLORENCE       RAIN      36  33  89 N8        30.52F FOG     WCI  30
DARLINGTON     CLOUDY    36  32  87 N8        30.54F WCI  29

....................REST OF NORTH CAROLINA......................

.........EASTERN NC.........

CITY           SKY/WX    TMP DP  RH WIND       PRES   REMARKS
CAPE HATTERAS  CLOUDY    53  45  74 SE9       30.52F
JACKSONVILLE   CLOUDY    46  36  66 W7        30.52R
MOREHEAD CITY  CLOUDY    63  53  70 E10       30.46F
KENANSVILLE    LGT RAIN  37  34  90 N6        30.51F WCI  32
NEW BERN       CLOUDY    48  38  68 N5        30.50F
ELIZABETH CITY LGT RAIN  39  35  86 NW6       30.54F WCI  35

.........CENTRAL NC.........

CITY           SKY/WX    TMP DP  RH WIND       PRES   REMARKS
RALEIGH DURHAM LGT RAIN  33  30  88 N3        30.53F VSB 1/2
ROCKY MOUNT    CLOUDY    33  32  96 VRB3      30.52F FOG
ROANOKE RAPIDS NOT AVBL
FAYETTEVILLE   CLOUDY    34  32  92 N6        30.52S WCI  29
HOFFMAN        RAIN      34  34  98 NW6       30.56F WCI  29

.........WESTERN NC.........

CITY           SKY/WX    TMP DP  RH WIND       PRES   REMARKS
CHARLOTTE      CLOUDY    36  32  85 NE5       30.51F WCI  32
GREENSBORO     FRZ RAIN  31  29  92 NE6       30.49F FOG     WCI  25
HICKORY        NOT AVBL
BOONE          NOT AVBL
ASHEVILLE      NOT AVBL

.....................REST OF SOUTH CAROLINA.....................

.........EASTERN SC.........

CITY           SKY/WX    TMP DP  RH WIND       PRES   REMARKS
CHARLESTON     LGT RAIN  42  41  96 N9        30.48F FOG
BEAUFORT MCAS  LGT RAIN  42  40  92 N8        30.48F
HILTON HEAD    RAIN      43  43 100 N9        30.48F

.........CENTRAL SC.........

CITY           SKY/WX    TMP DP  RH WIND       PRES   REMARKS
COLUMBIA       CLOUDY    38  35  89 N5        30.52F WCI  34
ORANGEBURG     CLOUDY    38  34  85 N7        30.51F WCI  33
SUMTER SHAW    CLOUDY    37  35  93 N8        30.50F WCI  30

.........WESTERN SC.........

CITY           SKY/WX    TMP DP  RH WIND       PRES   REMARKS
GREENVILLE     NOT AVBL
ROCK HILL      CLOUDY    35  34  96 VRB3      30.50F FOG
ANDERSON       CLOUDY    40  37  89 NE5       30.49F
CLEMSON        NOT AVBL
GREENWOOD      LGT RAIN  38  36  92 CALM      30.51F FOG


...................COASTAL AND OFFSHORE REPORTS..................

................LOCAL PIERS AND NC RESERVE................


STATION/POSITION TIME  SKY/WX   TEMP    WIND        PRES    VSBY
                                AIR SEA DIR/SP/G
                 (UTC)          (F)     (DEG/KT/KT) (MB)    (MI)
JOHNY MRCER PIER 1700            45 47   30/ 12/ 12 1031.1F
NC RESRV MASNBRO 1600            47      30/  8     1032.0S
OCEAN CREST PIER 1700            59 47   40/  7/  9 1030.5F
SPRINGMAID  PIER 1700            44 45  300/ 10/ 12 1032.2S


................COASTAL AND OFFSHORE BUOYS................


STATION/POSITION TIME  SKY/WX   TEMP    WIND        PRES    VSBY
                                AIR SEA DIR/SP/G
                 (UTC)          (F)     (DEG/KT/KT) (MB)    (MI)
DIMNDSHOAL 41025 NOT AVBL
CAPE LOOKOUT     1600            55      90/  6/  8 1032.7F
ONSLOW BAY 41036 NOT AVBL
5 WRITEBCH 41038 NOT AVBL
MASONBORO  41110 1700               46                N/A
WVE H/P(F/S)=  4/ 6 WND WVE H/P(F/S)=  5/ 6

WILM HARBR 41108 1700               46                N/A
WVE H/P(F/S)=  4/ 6 WND WVE H/P(F/S)=  3/ 6

27WRITEBCH 41037 NOT AVBL
FRYING PAN 41013 1700            65 61  140/ 14/ 17 1031.2R
WVE H/P(F/S)=  7/ 7 WND WVE H/P(F/S)=  5/ 6 SWL H/P/D(F/S/D)=  3/120/ 7

SUNST NRSH 41024 1600            50      80/  4/  6   N/A
CAPRS NRSH 41029 NOT AVBL
EDISTO     41004 1700            70 68  140/ 16/ 17 1029.7F
WVE H/P(F/S)=  8/ 7 WND WVE H/P(F/S)=  7/ 7 SWL H/P/D(F/S/D)=  5/ 8



..........OFFSHORE BUOYS BEYOND 100 NM OFFSHORE...........
.....IN A TRIANGLE---HAT TO BERMUDA TO BAHAMAS TO HAT.....


STATION/POSITION TIME  SKY/WX   TEMP    WIND        PRES    VSBY
                                AIR SEA DIR/SP/G
                 (UTC)          (F)     (DEG/KT/KT) (MB)    (MI)
150E HAT   41001 NOT AVBL
W BERMUDA  41048 1604            66 68   70/ 19/ 25 1031.9F
WVE H/P(F/S)=  9/ 8 WND WVE H/P(F/S)= 10/ 8

ATLANTIC S 41049 1553            73 74   70/  8/ 10 1026.6
WVE H/P(F/S)=  6/ 9 WND WVE H/P(F/S)=  2/ 3 SWL H/P/D(F/S/D)=  5/ 80/ 9

E BAHAMAS  41046 1639            75 78  100/ 16/ 19 1024.5F
WVE H/P(F/S)=  7/10 WND WVE H/P(F/S)=  5/ 5 SWL H/P/D(F/S/D)=  5/ 70/10

NE BAHAMAS 41047 NOT AVBL
120E CANVRL41010 1700            71 74   90/ 21/ 23 1028.6F
WVE H/P(F/S)=  9/ 9 WND WVE H/P(F/S)=  5/ 6 SWL H/P/D(F/S/D)=  7/ 60/ 9


END


USA.gov is the U.S. government's official web portal to all federal, state and local government web resources and services.